DLH1MG YMML-YSSY

Flight info

Callsign DLH1MG
Flight time N/A
Altitude 39000
Route DOSEL2/27 DOSEL Y59 RIVET
Aircraft A20N/M-SDE2E3FGHIRWXY/LB1

Departure

Time 2026-05-05 08:41
Airport Melbourne Airport (YMML)

Arrival

Time N/A
Airport Sydney Kingsford Smith International Airport (YSSY)
Time Latitude Longitude Altitude Speed Heading
2026-05-05 08:13 -37.66773 144.84455 394 ft 0 kts 171°
2026-05-05 08:24 -37.66772 144.84455 394 ft 2 kts 171°
2026-05-05 08:24 -37.66757 144.84452 391 ft 2 kts 171°
2026-05-05 08:24 -37.66742 144.84449 395 ft 2 kts 171°
2026-05-05 08:24 -37.66727 144.84447 394 ft 2 kts 171°
2026-05-05 08:25 -37.66713 144.84443 395 ft 2 kts 158°
2026-05-05 08:25 -37.66699 144.84435 395 ft 2 kts 143°
2026-05-05 08:25 -37.66688 144.84422 394 ft 2 kts 124°
2026-05-05 08:25 -37.66681 144.84406 396 ft 2 kts 105°
2026-05-05 08:26 -37.66679 144.84390 396 ft 1 kts 83°
2026-05-05 08:26 -37.66679 144.84389 396 ft 0 kts 83°
2026-05-05 08:28 -37.66678 144.84397 396 ft 3 kts 83°
2026-05-05 08:28 -37.66672 144.84451 398 ft 8 kts 82°
2026-05-05 08:28 -37.66661 144.84537 393 ft 11 kts 81°
2026-05-05 08:28 -37.66649 144.84639 400 ft 11 kts 81°
2026-05-05 08:29 -37.66635 144.84739 402 ft 12 kts 72°
2026-05-05 08:29 -37.66576 144.84810 404 ft 11 kts 33°
2026-05-05 08:29 -37.66544 144.84896 406 ft 12 kts 82°
2026-05-05 08:30 -37.66495 144.85038 406 ft 6 kts 11°
2026-05-05 08:30 -37.66459 144.85021 404 ft 6 kts 327°
2026-05-05 08:30 -37.66423 144.84986 409 ft 7 kts 322°
2026-05-05 08:30 -37.66399 144.84962 406 ft 0 kts 320°
2026-05-05 08:35 -37.66393 144.84955 410 ft 5 kts 320°
2026-05-05 08:36 -37.66345 144.84907 411 ft 11 kts 322°
2026-05-05 08:36 -37.66280 144.84841 408 ft 13 kts 321°
2026-05-05 08:36 -37.66229 144.84780 405 ft 6 kts 297°
2026-05-05 08:36 -37.66224 144.84746 409 ft 0 kts 275°
2026-05-05 08:40 -37.66223 144.84735 412 ft 7 kts 275°
2026-05-05 08:40 -37.66204 144.84408 410 ft 73 kts 275°
2026-05-05 08:40 -37.66152 144.83515 415 ft 129 kts 274°
2026-05-05 08:40 -37.66082 144.82297 729 ft 144 kts 275°
2026-05-05 08:41 -37.66016 144.81005 1242 ft 152 kts 274°
2026-05-05 08:41 -37.65942 144.79713 1985 ft 143 kts 274°
2026-05-05 08:41 -37.65862 144.78442 2481 ft 152 kts 274°
2026-05-05 08:41 -37.65774 144.77037 2857 ft 170 kts 274°
2026-05-05 08:42 -37.65679 144.75466 3289 ft 189 kts 273°
2026-05-05 08:42 -37.65574 144.73696 3728 ft 214 kts 273°
2026-05-05 08:42 -37.65458 144.71726 4390 ft 236 kts 273°
2026-05-05 08:42 -37.65330 144.69576 5078 ft 255 kts 273°
2026-05-05 08:43 -37.64991 144.67345 6008 ft 265 kts 292°
2026-05-05 08:43 -37.63889 144.65457 6951 ft 275 kts 319°
2026-05-05 08:43 -37.62175 144.64349 7937 ft 282 kts 340°
2026-05-05 08:43 -37.60275 144.63635 8914 ft 288 kts 342°
2026-05-05 08:44 -37.58332 144.62956 9904 ft 292 kts 342°
2026-05-05 08:44 -37.56324 144.62377 10715 ft 306 kts 353°
2026-05-05 08:44 -37.54126 144.62685 11093 ft 334 kts 17°
2026-05-05 08:44 -37.52027 144.64138 11483 ft 357 kts 40°
2026-05-05 08:45 -37.50389 144.66512 12269 ft 362 kts 55°
2026-05-05 08:45 -37.49000 144.69188 13137 ft 367 kts 58°
2026-05-05 08:45 -37.47615 144.71915 13987 ft 372 kts 59°
2026-05-05 08:45 -37.46366 144.74780 14767 ft 375 kts 63°
2026-05-05 08:46 -37.45118 144.77678 15580 ft 378 kts 62°
2026-05-05 08:46 -37.43823 144.80563 16360 ft 381 kts 61°
2026-05-05 08:46 -37.42493 144.83470 16705 ft 384 kts 60°
2026-05-05 08:46 -37.41152 144.86379 16705 ft 384 kts 60°
2026-05-05 08:47 -37.39814 144.89278 16706 ft 384 kts 60°
2026-05-05 08:47 -37.38491 144.92143 16708 ft 383 kts 60°
2026-05-05 08:47 -37.37588 144.94100 16707 ft 384 kts 60°